Location: City of Moscow
(46.7306°N, 116.9989°W)
Time: 02:53:51
(UTC+00:00)

ACS3 Solar Sail - Pass Details

Date: 23 February 2026
Orbit: 889 x 972 km, 97.2° (Epoch: 6 March)

Event Time Altitude Azimuth Distance (km) Brightness Sun altitude
Rises 11:22:11 0° 1° (N) 3,512 5.0 -33.7°
Reaches altitude 10° 11:25:11 10° 345° (NNW) 2,565 4.1 -33.3°
Enters shadow 11:25:20 11° 344° (NNW) 2,527 4.0 -33.2°
